{"data":{"norad_id":57758,"intl_designator":"2023-133C","name":"WILDFIRE 3","alt_names":[],"object_type":"PAYLOAD","status":"ACTIVE","operator":null,"country":"US","launch_date":"2023-09-02","launch_site_code":"AFWTR","launch_vehicle":null,"mission":null,"orbit_class":"UNKNOWN","rcs_meters":null,"size_class":null,"mass_kg":null,"dimensions":null,"purposes":[],"wikipedia_slug":null,"has_3d_model":false,"image_url":null,"decayed_at":null,"tle_current":{"epoch":"2026-09-22T12:47:05.482176Z","epoch_age_seconds":130601,"freshness":"FRESH","line1":"1 57758U 23133C   26265.53270234  .00000089  00000+0  67584-4 0  9991","line2":"2 57758  80.9928 272.3487 0009728  91.8721 268.3550 13.86291969154583","mean_motion":13.86291969,"eccentricity":0.0009728,"inclination_deg":80.9928,"raan_deg":272.3487,"arg_perigee_deg":91.8721,"mean_anomaly_deg":268.355,"bstar":6.7584e-5,"rev_number":15458,"period_min":103.87422218414,"perigee_km":934.53368064518,"apogee_km":948.77506674184,"semimajor_km":7319.7913736935,"source":"CELESTRAK","updated_at":"2026-09-23T09:00:18.337214Z"}}}